Clyde, Nunavut

8:45 AM EDT on March 24, 2017 (GMT -0400)
Clyde River

Weather History for CYCY - November, 2012

Change the Weather History Date:

Thursday, November 22, 2012

  Actual Average Record
Temperature  
Mean Temperature 2 °F -  
Max Temperature 4 °F -2 °F 32 °F (2010)
Min Temperature 0 °F -15 °F -18 °F (2001)
Degree Days  
Heating Degree Days 63    
Moisture  
Dew Point -3 °F    
Average Humidity 79    
Maximum Humidity 85    
Minimum Humidity 62    
Precipitation  
Precipitation 0.00 in 0.02 in - ()
Sea Level Pressure  
Sea Level Pressure 30.00 in    
Wind  
Wind Speed 16 mph ()    
Max Wind Speed 20 mph    
Max Gust Speed -    
Visibility 4.7 miles    
Events Snow    
Averages and records for this station are not official NWS values.
T = Trace of Precipitation, MM = Missing Value Source: Averaged Metar Reports

Daily Weather History Graph

Daily Weather History Graph

Search for Another Location

Airport or City:

Trip Planner

Search our weather history database for the weather conditions in past years. The results will help you decide how hot, cold, wet, or windy it might be!

Date:

Astronomy

Nov. 22, 2012 Rise Set
Actual Time 12:04 PM AST 12:35 PM AST
Civil Twilight 9:20 AM AST 3:18 PM AST
Nautical Twilight 7:49 AM AST 4:50 PM AST
Astronomical Twilight 6:32 AM AST 6:06 PM AST
Moon 1:35 PM AST (11/22) 1:46 AM AST (11/22)
Length of Visible Light 5h 57m
Length of Day
0h 31m
Waxing Gibbous, 71% of the Moon is Illuminated
Nov 22
Waxing Gibbous
Nov 28
Full
Dec 6
Last Quarter
Dec 13
New
Dec 20
First Quarter

Hourly Weather History & Observations

Time (AST) Temp. Windchill Dew Point Humidity Pressure Visibility Wind Dir Wind Speed Gust Speed Precip Events Conditions
12:00 AM 1.4 °F -17.6 °F -4.0 °F 78% 30.01 in 9.0 mi WNW 15.0 mph - N/A   Overcast
12:14 AM 1.4 °F -17.6 °F -4.0 °F 78% 30.00 in 9.0 mi WNW 15.0 mph - N/A   Overcast
1:00 AM 1.4 °F -18.2 °F -4.0 °F 78% 30.01 in 5.0 mi WNW 16.1 mph - N/A   Overcast
1:16 AM 1.4 °F -17.6 °F -4.0 °F 78% 29.99 in 7.0 mi WNW 15.0 mph - N/A   Overcast
2:00 AM 2 °F - -4 °F 65% 30.01 in 6 mi WNW 16.1 mph - -   Overcast
2:00 AM 1.4 °F -18.2 °F -4.0 °F 78% 30.01 in 6.0 mi WNW 16.1 mph - N/A   Overcast
2:27 AM 1.4 °F -18.8 °F -4.0 °F 78% 30.00 in 6.0 mi WNW 17.3 mph - N/A   Unknown
3:00 AM 1.4 °F -18.2 °F -4.0 °F 78% 30.02 in 8.0 mi WNW 16.1 mph - N/A   Overcast
3:27 AM 1.4 °F -19.9 °F -4.0 °F 78% 30.00 in 3.0 mi NW 19.6 mph - N/A   Overcast
3:42 AM 1.4 °F -19.4 °F -2.2 °F 85% 30.00 in 6.0 mi NW 18.4 mph - N/A   Overcast
4:00 AM 3.2 °F -17.6 °F -2.2 °F 78% 30.01 in 6.0 mi NW 19.6 mph - N/A   Overcast
4:44 AM 3.2 °F -17.1 °F -2.2 °F 78% 30.00 in 2.5 mi NW 18.4 mph - N/A   Overcast
5:00 AM 2 °F - -2 °F 73% 30.02 in 3 mi NW 18.4 mph - -   Overcast
5:00 AM 3.2 °F -17.1 °F -2.2 °F 78% 30.02 in 3.0 mi NW 18.4 mph - N/A   Overcast
5:25 AM 3.2 °F -17.1 °F -2.2 °F 78% 30.00 in 4.0 mi NW 18.4 mph - N/A   Overcast
5:34 AM 3.2 °F -17.1 °F -2.2 °F 78% 30.01 in 3.5 mi NW 18.4 mph - N/A   Overcast
6:00 AM 3.2 °F -17.1 °F -2.2 °F 78% 30.03 in 3.0 mi NW 18.4 mph - N/A   Overcast
6:36 AM 3.2 °F -16.5 °F -0.4 °F 85% 30.00 in 2.5 mi NW 17.3 mph - N/A   Overcast
7:00 AM 3.2 °F -17.1 °F -0.4 °F 85% 30.02 in 2.0 mi NW 18.4 mph - N/A   Overcast
7:28 AM 3.2 °F -17.1 °F -0.4 °F 85% 30.00 in 1.4 mi NW 18.4 mph - N/A   Overcast
7:47 AM 3.2 °F -17.1 °F -0.4 °F 85% 30.01 in 1.5 mi NW 18.4 mph - N/A   Overcast
7:59 AM 3.2 °F -17.6 °F -0.4 °F 85% 30.01 in 1.4 mi NW 19.6 mph - N/A   Overcast
8:00 AM 3 °F - -1 °F 77% 30.02 in 1 mi NW 18.4 mph - -   Overcast
8:00 AM 3.2 °F -17.1 °F -0.4 °F 85% 30.02 in 1.4 mi NW 18.4 mph - N/A   Overcast
8:36 AM 3.2 °F -17.6 °F -0.4 °F 85% 30.00 in 1.1 mi NW 19.6 mph - N/A Snow Light Snow
8:51 AM 3.2 °F -17.6 °F -0.4 °F 85% 30.01 in 1.1 mi NW 19.6 mph - N/A   Overcast
9:00 AM 3.2 °F -17.1 °F -0.4 °F 85% 30.02 in 1.2 mi NW 18.4 mph - N/A   Overcast
9:27 AM 3.2 °F -17.1 °F -0.4 °F 85% 30.00 in 2.0 mi NW 18.4 mph - N/A   Overcast
10:00 AM 3.2 °F -15.9 °F -0.4 °F 85% 30.01 in 4.0 mi NW 16.1 mph - N/A   Overcast
10:05 AM 3.2 °F -16.5 °F -0.4 °F 85% 30.00 in 4.0 mi NW 17.3 mph - N/A   Overcast
10:07 AM 3.2 °F -16.5 °F -0.4 °F 85% 30.00 in 4.0 mi NW 17.3 mph - N/A   Overcast
10:17 AM 3.2 °F -15.9 °F -0.4 °F 85% 30.00 in 4.0 mi NW 16.1 mph - N/A Snow Light Snow
10:35 AM 3.2 °F -17.1 °F -0.4 °F 85% 30.00 in 3.0 mi NW 18.4 mph - N/A Snow Light Snow
10:45 AM 3.2 °F -17.1 °F -0.4 °F 85% 29.99 in 3.0 mi NW 18.4 mph - N/A Snow Light Snow
10:52 AM 3.2 °F -17.1 °F -0.4 °F 85% 29.99 in 3.0 mi NW 18.4 mph - N/A Snow Light Snow
10:59 AM 3.2 °F -16.5 °F -0.4 °F 85% 29.99 in 3.0 mi NW 17.3 mph - N/A Snow Light Snow
11:00 AM 4 °F - -1 °F 72% 30.01 in 3 mi NW 17.3 mph - - Snow Light Snow
11:00 AM 3.2 °F -16.5 °F -0.4 °F 85% 30.01 in 10.0 mi NW 17.3 mph - N/A Snow Light Snow
11:47 AM - - - N/A% - 2.0 mi NNW 18.4 mph - N/A   Unknown
12:00 PM 3.2 °F -16.5 °F -0.4 °F 85% 30.01 in 2.0 mi NW 17.3 mph - N/A Snow Light Snow
12:50 PM - - - N/A% - 3.0 mi NNW 15.0 mph - N/A   Unknown
1:00 PM 3.2 °F -15.3 °F -2.2 °F 78% 30.01 in 3.0 mi NW 15.0 mph - N/A Snow Light Snow
2:00 PM 2 °F - -3 °F 69% 30.01 in 7 mi NW 16.1 mph - -   Overcast
2:00 PM 3.2 °F -15.9 °F -4.0 °F 72% 30.01 in 5.0 mi NW 16.1 mph - N/A Snow Light Snow
3:00 PM 1.4 °F -19.4 °F -4.0 °F 78% 30.00 in 5.0 mi NW 18.4 mph - N/A Snow Light Snow
4:00 PM 1.4 °F -19.9 °F -4.0 °F 78% 30.00 in 5.0 mi NW 19.6 mph - N/A Snow Light Snow
5:00 PM 2 °F - -4 °F 66% 29.99 in 3 mi WNW 19.6 mph - -   Overcast
5:00 PM 1.4 °F -19.4 °F -4.0 °F 78% 29.99 in 5.0 mi WNW 18.4 mph - N/A Snow Light Snow
6:00 PM 1.4 °F -19.4 °F -4.0 °F 78% 29.99 in 5.0 mi WNW 18.4 mph - N/A Snow Light Snow
7:00 PM 1.4 °F -18.2 °F -4.0 °F 78% 29.99 in 6.0 mi NW 16.1 mph - N/A Snow Light Snow
8:00 PM 0 °F - -6 °F 66% 29.98 in 9 mi NW 16.1 mph - -   Overcast
8:00 PM 1.4 °F -18.2 °F -5.8 °F 72% 29.98 in 9.0 mi WNW 16.1 mph - N/A Snow Light Snow
8:53 PM -0.4 °F -20.5 °F -7.6 °F 72% 29.95 in 9.0 mi NW 16.1 mph - N/A   Overcast
9:00 PM -0.4 °F -19.9 °F -7.6 °F 72% 29.97 in 9.0 mi NW 15.0 mph - N/A   Overcast
10:00 PM 1.4 °F -16.9 °F -5.8 °F 72% 29.95 in 9.0 mi WNW 13.8 mph - N/A   Partly Cloudy
10:04 PM 1.4 °F -16.9 °F -5.8 °F 72% 29.93 in 9.0 mi WNW 13.8 mph - N/A   Overcast
11:00 PM 2 °F - -5 °F 62% 29.92 in 9 mi WNW 13.8 mph - -   Overcast
11:00 PM 3.2 °F -14.6 °F -4.0 °F 72% 29.92 in 9.0 mi WNW 13.8 mph - N/A   Overcast